This demonstration page uses our WeatherBlox Daily Observations layout. Learn more.

Left ArrowRight Arrow

38.88101, -77.10428

Hourly Observations for December 14, 2019

Temp ( °F °C ) Dew Point ( °F °C ) Humidity (%) Winds ( mph kmh ) Pressure ( in mb ) Visibility ( mi km ) Precip ( " mm )
12:19 am 00:19 Cloudy with Light Rain 41 5 40 4.4 96 96 NNW 7 11 29.76 1008 5 8 0.01 0.25
12:52 am 00:52 Cloudy with Light Rain 42 5.6 41 5 96 96 NW 12 19 29.73 1007 6 10 0.03 0.76
1:52 am 01:52 Cloudy 43 6.1 42 5.6 97 97 NNW 6 9 29.68 1005 7 11 0.00 0.00
2:42 am 02:42 Cloudy 44 6.7 43 6.1 96 96 NW 5 7 29.65 1004 7 11 N/A
2:52 am 02:52 Cloudy 45 7.2 43 6.1 93 93 NNW 5 7 29.64 1004 8 13 N/A
3:23 am 03:23 Cloudy 46 7.8 44 6.7 93 93 NNW 3 6 29.62 1003 8 13 N/A
3:52 am 03:52 Cloudy with Mist and Fog 45 7.2 44 6.7 97 97 N 7 11 29.60 1002 4 6 N/A
4:05 am 04:05 Cloudy with Mist and Fog 44 6.7 43 6.1 96 96 N 5 7 29.59 1002 2 3 N/A
4:13 am 04:13 Cloudy with Mist and Fog 44 6.7 43 6.1 96 96 N 5 7 29.58 1002 2 2 N/A
4:29 am 04:29 Cloudy with Mist and Fog 44 6.7 43 6.1 96 96 NW 8 13 29.58 1002 2 2 N/A
4:41 am 04:41 Cloudy with Mist and Fog 44 6.7 43 6.1 96 96 N 8 13 29.58 1002 2 3 N/A
4:52 am 04:52 Cloudy with Mist and Fog 43 6.1 43 6.1 100 100 NNW 8 13 29.57 1002 2 3 N/A
5:26 am 05:26 Cloudy with Mist and Fog 43 6.1 42 5.6 97 97 N 5 7 29.57 1001 2 3 N/A
5:52 am 05:52 Cloudy with Mist and Fog 43 6.1 43 6.1 100 100 NNW 3 6 29.56 1001 2 3 N/A
6:34 am 06:34 Cloudy with Mist and Fog 43 6.1 42 5.6 97 97 NW 8 13 29.52 1000 3 5 N/A
6:52 am 06:52 Cloudy with Drizzle 43 6.1 42 5.6 97 97 WNW 6 9 29.52 1000 5 8 0.00 0.00
6:58 am 06:58 Cloudy with Drizzle 43 6.1 43 6.1 100 100 W 3 6 29.53 1000 6 10 0.00 0.00
7:28 am 07:28 Cloudy with Drizzle 43 6.1 43 6.1 100 100 N 5 7 29.51 999 3 4 0.00 0.00
7:34 am 07:34 Cloudy with Drizzle 43 6.1 43 6.1 100 100 N 7 11 29.50 999 2 3 0.00 0.00
7:48 am 07:48 Cloudy with Drizzle 43 6 43 6 100 100 NNW 6 9 29.50 999 2 3 0.01 0.25
7:52 am 07:52 Cloudy with Drizzle 43 6.1 43 6.1 100 100 NNW 6 9 29.50 999 3 4 0.01 0.25
7:55 am 07:55 Cloudy with Drizzle 43 6.1 43 6.1 100 100 NNW 5 7 29.50 999 3 5 0.00 0.00
8:52 am 08:52 Cloudy with Light Rain 44 6.7 43 6.1 96 96 NNW 5 7 29.46 998 7 11 0.00 0.00
9:52 am 09:52 Cloudy with Light Rain 46 7.8 44 6.7 93 93 N N/A 29.41 996 6 10 0.00 0.00
10:24 am 10:24 Cloudy with Drizzle 45 7.2 44 6.7 97 97 WSW 3 6 29.41 996 3 4 0.00 0.00
10:27 am 10:27 Cloudy with Drizzle 45 7.2 44 6.7 97 97 N N/A 29.41 996 2 3 0.00 0.00
10:30 am 10:30 Cloudy with Drizzle 45 7.2 44 6.7 97 97 WSW 3 6 29.41 996 2 3 0.00 0.00
10:46 am 10:46 Cloudy with Light Rain 45 7 45 7 100 100 VRB 5 7 29.40 996 1 1 0.01 0.25
10:52 am 10:52 Cloudy with Light Rain 45 7.2 44 6.7 97 97 WSW 9 15 29.41 996 1 2 0.01 0.25
11:18 am 11:18 Cloudy with Light Rain 45 7.2 44 6.7 97 97 W 15 24 29.40 996 2 3 0.04 1.02
11:24 am 11:24 Cloudy with Light Rain 44 6.7 43 6.1 96 96 W 14 22 29.39 995 3 5 0.05 1.27
11:27 am 11:27 Cloudy with Light Rain 44 6.7 43 6.1 96 96 W 10 17 29.39 995 4 6 0.05 1.27
11:33 am 11:33 Cloudy with Light Rain 45 7.2 43 6.1 93 93 WNW 9 15 29.38 995 5 8 0.06 1.52
11:52 am 11:52 Cloudy 45 7.2 44 6.7 97 97 NNE 9 15 29.31 993 8 13 0.06 1.52
11:54 am 11:54 Cloudy 45 7.2 44 6.7 97 97 N 9 15 29.32 993 10 16 N/A
12:09 pm 12:09 Cloudy 46 7.8 44 6.7 93 93 W 6 9 29.36 994 10 16 N/A
12:21 pm 12:21 Cloudy with Light Rain 46 7.8 44 6.7 93 93 WSW 8 13 29.38 995 6 10 0.00 0.00
12:26 pm 12:26 Cloudy with Light Rain 46 7.8 44 6.7 93 93 WSW 6 9 29.37 995 3 5 0.00 0.00
12:29 pm 12:29 Cloudy with Light Rain 46 7.8 44 6.7 93 93 WSW 5 7 29.36 994 3 4 0.00 0.00
12:32 pm 12:32 Cloudy with Light Rain 46 7.8 44 6.7 93 93 WSW 6 9 29.36 994 3 5 0.01 0.25
12:36 pm 12:36 Cloudy with Light Rain 46 7.8 45 7.2 96 96 N N/A 29.36 994 5 8 0.01 0.25
12:39 pm 12:39 Cloudy with Light Rain 47 8.3 45 7.2 93 93 WSW 5 7 29.35 994 6 10 0.01 0.25
12:52 pm 12:52 Cloudy 47 8.3 45 7.2 93 93 W 6 9 29.35 994 10 16 0.01 0.25
12:59 pm 12:59 Mostly Cloudy 48 8.9 46 7.8 93 93 WSW 6 9 29.36 994 10 16 N/A
1:39 pm 13:39 Cloudy 49 9.4 46 7.8 90 90 WNW 6 9 29.34 994 10 16 N/A
1:52 pm 13:52 Cloudy 49 9.4 46 7.8 90 90 W 6 9 29.35 994 10 16 N/A
2:52 pm 14:52 Cloudy 48 8.9 46 7.8 93 93 VRB 7 11 29.35 994 10 16 N/A
3:04 pm 15:04 Cloudy 47 8.3 46 7.8 97 97 S 6 9 29.36 994 10 16 N/A
3:19 pm 15:19 Cloudy 47 8.3 45 7.2 93 93 S 7 11 29.37 995 10 16 N/A
3:52 pm 15:52 Cloudy 48 8.9 46 7.8 93 93 SSW 7 11 29.37 995 10 16 N/A
4:52 pm 16:52 Mostly Cloudy 50 10 47 8.3 89 89 W 5 7 29.41 996 10 16 N/A
4:55 pm 16:55 Mostly Cloudy 50 10 47 8.3 89 89 W 6 9 29.42 996 10 16 N/A
5:52 pm 17:52 Mostly Cloudy 51 10.6 41 5 69 69 WNW 16 26 29.45 997 10 16 N/A
6:52 pm 18:52 Cloudy 49 9.4 34 1.1 56 56 WNW 14 22 29.51 999 10 16 N/A
7:52 pm 19:52 Cloudy 48 8.9 33 0.6 56 56 WNW 22 35 29.55 1001 10 16 N/A
8:52 pm 20:52 Mostly Clear 47 8.3 33 0.6 59 59 WNW 16 26 29.59 1002 10 16 N/A
9:52 pm 21:52 Clear 47 8.3 32 undefined 56 56 WNW 18 30 29.61 1003 10 16 N/A
10:07 pm 22:07 Mostly Cloudy 47 8.3 32 undefined 56 56 WNW 15 24 29.61 1003 10 16 N/A
10:52 pm 22:52 Mostly Clear 46 7.8 32 undefined 58 58 WNW 12 19 29.63 1003 10 16 N/A
11:52 pm 23:52 Mostly Cloudy 46 7.8 32 undefined 58 58 W 10 17 29.67 1005 10 16 N/A

Powered by AerisWeather